SCP
0 0 0 0 0 0 0 0 0 -0 0 0 -0 -0 -0 -0 -0 -0 0 0 0 0 0 0 0 0 0 0 0 0 0 0 0 0 0 0 0 0 0 0 0 0 0 0 0 0 0 0 0 0 0 0 0 0
0 0 0 0 -0 0 0 0 0 -0 -0 0 0 -0 -0 -0 -0 -0 0 0 0 0 0 0 0 0 0 0 0 0 0 0 0 0 0 0 0 0 0 0 0 0 0 0 0 0 0 0 0 0 0 0 0 0
0 0 0 0 0 0 0 0 0 -0 -0 0 0 -0 -0 -0 -0 -0 0 0 0 0 0 0 0 0 0 0 0 0 0 0 0 0 0 0 0 0 0 0 0 0 0 0 0 0 0 0 0 0 0 0 0 0
0 0 0 0 0 0 0 0 0 -0 0 0 -0 -0 -0 -0 -0 -0 0 0 0 0 -0 0 0 0 0 0 0 0 0 0 0 0 0 0 0 0 0 0 0 0 0 0 0 0 0 0 0 0 0 0 0 0
0 0 0 0 0 0 0 0 -0 -0 0 0 0 -0 -0 -0 -0 -0 0 0 -0 -0 0 0 0 0 0 0 0 0 0 0 0 0 0 0 0 0 0 0 0 0 0 0 0 0 0 0 0 0 0 0 0 0
0 0 0 0 -0 -0 -0 -0 0 0 0 0 0 0 0 -0 0 0 0 0 -0 -0 -0 0 0 0 0 0 0 0 0 0 0 0 0 0 0 0 0 0 0 0 0 0 0 0 0 0 0 0 0 0 0 0
0 0 0 -0 -0 -0 0 -0 0 0 0 0 0 0 0 -0 -0 -0 -0 -0 -0 -0 -0 0 0 0 0 0 0 0 0 0 0 0 0 0 0 0 0 0 0 0 0 0 0 0 0 0 0 0 0 0 0 0
0 0 0 -0 -0 -0 0 0 -0 0 0 -0 -0 -0 -0 -0 -0 0 -0 -0 0 0 0 0 0 0 0 0 0 0 0 0 0 0 0 0 0 0 0 0 0 0 0 0 0 0 0 0 0 0 0 0 0 0
0 0 -0 -0 -0 -0 0 0 0 0 0 -0 -0 -0 -0 -0 -0 -0 -0 0 0 0 0 0 0 0 0 0 0 0 0 0 0 0 0 0 0 0 0 -0 0 0 0 0 0 0 0 0 0 0 0 0 0 0
0 -0 -0 -0 -0 0 -0 0 0 0 0 -0 0 -0 -0 0 -0 0 0 0 0 0 0 0 0 0 0 0 0 0 0 0 0 0 0 0 0 0 0 0 0 0 0 0 0 -0 -0 -0 0 0 0 0 0 0
-0 -0 0 0 -0 -0 -0 0 -0 -0 0 0 0 -0 -0 -0 0 0 0 0 0 0 0 0 -0 0 0 0 0 0 0 0 0 0 0 0 0 0 0 0 0 0 0 0 0 0 0 0 0 0 0 0 0 0
-0 0 0 0 0 -0 0 0 -0 0 0 0 0 -0 0 -0 0 0 0 0 0 0 0 0 0 0 0 0 0 0 0 0 0 0 0 0 0 0 0 0 0 0 0 0 0 0 0 0 0 0 0 0 0 -0
-0 -0 -0 0 0 0 0 0 0 0 0 0 0 -0 0 -0 0 0 0 0 0 0 0 0 0 0 0 0 0 0 0 0 0 0 0 0 0 0 0 0 0 0 0 0 0 0 0 0 0 0 0 0 0 0
0 -0 -0 -0 0 0 0 0 0 0 0 0 -0 -0 -0 -0 0 0 0 -0 0 0 0 0 0 0 0 0 0 0 0 0 0 0 0 0 0 0 0 0 0 0 0 0 0 0 0 0 0 0 0 0 0 0
-0 -0 0 0 0 0 0 0 0 0 0 0 0 -0 -0 -0 0 -0 -0 0 0 0 0 0 0 0 0 0 0 0 0 0 0 0 0 0 0 0 0 0 0 0 0 0 0 0 0 0 0 0 0 0 0 0
0 -0 0 0 0 0 0 0 0 0 0 0 0 -0 -0 0 0 -0 0 0 0 0 0 0 0 0 0 0 0 0 0 0 0 -0 0 0 0 0 0 0 0 0 0 0 0 0 0 0 0 0 0 0 0 0
-0 0 0 0 0 0 0 0 0 0 0 0 0 -0 0 -0 -0 0 0 0 0 0 0 0 0 0 0 0 0 0 0 0 0 0 0 0 0 0 0 0 0 0 0 0 0 0 0 0 -0 -0 -0 -0 -0 0
-0 0 0 -0 -0 0 0 0 0 0 0 0 0 0 0 0 -0 0 0 0 0 0 0 0 0 0 0 0 0 0 0 0 0 0 0 0 0 0 0 0 0 0 0 0 0 0 0 0 -0 0 -0 0 0 0
0 0 0 -0 0 0 0 0 0 0 0 0 -0 0 -0 -0 -0 -0 0 0 0 0 0 0 0 0 0 -0 0 0 0 0 0 0 0 0 0 0 0 0 0 0 0 0 0 0 -0 -0 0 0 0 0 0 0
-0 0 0 0 -0 0 0 0 0 0 0 0 0 0 0 0 0 0 0 0 0 0 0 0 0 0 0 0 0 0 0 0 0 0 0 0 0 0 0 0 0 0 0 0 0 0 0 -0 -0 0 -0 0 -0 -0
-0 0 0 -0 -0 0 0 0 0 0 0 0 0 -0 -0 0 0 0 0 0 0 0 0 0 0 0 0 0 0 0 0 0 0 0 0 0 0 0 0 0 0 0 0 0 0 0 0 -0 -0 -0 0 -0 -0 0
0 0 -0 -0 0 -0 0 0 0 0 0 0 0 -0 -0 0 0 0 0 0 0 0 0 0 0 0 1 0 0 0 0 0 0 0 0 0 0 0 0 0 0 0 0 -0 0 0 0 0 -0 -0 0 -0 -0 0
0 0 -0 0 0 0 0 0 0 0 0 0 0 0 0 0 0 0 0 0 0 0 0 0 0 0 0 0 0 0 0 0 0 0 0 0 0 0 0 0 0 0 0 0 0 -0 0 0 0 -0 0 0 0 0
0 0 0 0 -0 0 0 0 0 0 0 0 0 0 0 0 0 0 0 0 0 0 0 0 0 0 0 0 0 0 0 -0 0 0 0 0 0 0 0 0 0 0 -0 0 0 0 0 0 0 0 -0 0 0 0
0 0 0 0 0 0 0 0 0 0 0 0 0 0 0 0 0 0 0 0 0 0 0 0 0 0 0 0 0 0 0 -0 0 0 0 0 0 0 0 0 0 0 0 0 0 0 0 0 -0 -0 -0 -0 -0 0
0 0 0 0 0 0 0 0 0 0 0 0 0 0 0 0 0 0 0 0 0 0 0 0 0 0 0 0 0 0 -0 -0 0 0 0 0 0 0 0 0 0 0 0 0 0 0 0 -0 -0 0 0 0 -0 0
0 0 0 0 0 0 0 0 0 0 0 0 0 0 0 0 0 0 0 0 0 0 0 0 0 0 0 0 0 -0 -0 0 -0 0 0 0 0 0 0 0 0 0 0 -0 0 0 0 0 0 0 0 0 0 0
0 0 0 0 0 0 0 0 0 0 0 0 0 0 0 0 0 0 0 0 0 0 0 0 0 0 0 0 -0 -0 0 0 0 0 0 0 0 0 0 0 0 0 0 -0 -0 0 0 0 0 0 0 0 0 0
0 0 0 0 0 0 0 0 0 0 0 0 0 0 0 0 0 0 0 0 0 0 0 0 0 0 0 -0 -0 -0 0 0 0 0 0 0 0 0 0 0 0 0 0 0 -0 -0 -0 -0 -0 -0 -0 -0 -0 -0
-0 0 0 0 0 0 0 0 0 0 0 0 0 0 0 0 0 0 0 0 0 0 0 0 0 -0 0 0 0 0 0 -0 0 0 0 0 0 0 0 0 0 0 0 0 0 0 0 0 0 0 0 0 0 0
0 0 0 0 -0 -0 -0 -0 0 -0 -0 0 0 0 0 0 0 0 0 0 0 0 0 0 0 -0 0 0 0 0 0 0 0 -0 -0 -0 0 0 0 0 0 0 0 0 0 0 0 0 0 0 0 0 0 -0
0 0 0 0 0 0 0 0 -0 -0 0 0 0 0 0 0 0 0 0 0 0 0 0 0 -0 0 -0 0 0 0 -0 -0 0 0 0 0 0 0 0 0 0 0 0 0 0 0 0 0 0 0 0 0 0 -0
0 0 0 -0 -0 -0 -0 -0 0 0 0 0 0 0 0 0 0 0 0 0 0 0 0 0 0 0 0 0 0 -0 -0 -0 -0 0 0 0 -0 0 0 0 0 0 0 0 0 0 0 0 0 0 0 0 0 0
Wind_Speed_500mb
48 44 43 38 36 24 18 18 14 12 11 9 8 8 6 4 4 6 5 6 5 10 11 2 3 5 5 12 14 25 13 15 14 12 9 7 7 5 3 14 11 11 11 12 17 25 24 24 16 10 14 12 19 19
51 47 43 40 33 28 19 17 12 10 9 6 4 5 5 6 6 9 3 10 2 7 12 1 1 3 4 7 20 9 15 8 6 9 3 4 3 8 13 6 14 9 10 8 7 8 11 12 9 15 10 19 16 20
59 50 42 38 34 25 16 16 12 8 7 6 3 3 4 5 6 4 1 7 5 9 15 10 8 3 8 11 11 24 1 10 3 16 22 3 7 9 10 10 13 14 13 9 12 16 11 8 6 15 16 18 15 14
54 47 44 38 33 26 19 15 12 10 7 6 3 5 4 4 5 7 3 7 3 7 11 14 7 8 13 11 15 14 5 5 4 7 21 11 10 5 14 13 8 12 10 13 22 16 5 15 20 22 22 16 16 15
52 49 45 44 35 29 21 16 14 12 8 5 5 6 5 3 4 11 4 7 5 5 12 17 13 15 10 1 5 8 12 13 17 9 9 10 12 8 20 11 12 15 14 13 14 17 16 20 31 31 27 23 20 20
43 44 39 25 36 31 24 20 15 13 7 5 6 6 4 2 5 6 6 3 4 4 10 4 10 11 15 14 12 8 7 4 3 1 1 7 11 17 6 7 11 13 22 25 24 15 16 13 12 32 31 27 23 22
45 37 24 21 36 33 28 20 17 12 6 3 5 5 1 5 10 5 2 6 13 5 9 8 9 4 2 11 8 8 8 6 5 7 5 3 6 4 4 9 16 15 16 13 11 12 12 15 17 20 22 24 20 21
35 22 16 21 36 34 30 22 19 12 6 8 7 4 14 18 16 13 7 10 17 2 8 3 7 10 2 12 4 4 8 9 7 9 11 8 9 7 8 25 25 15 19 22 28 29 29 10 26 18 21 22 24 25
21 14 15 29 38 35 29 24 17 12 13 12 11 17 15 9 4 1 4 6 4 5 6 6 9 6 8 5 3 2 2 4 8 8 9 13 6 9 16 21 15 18 21 26 27 30 30 30 24 27 25 25 26 26
12 9 30 41 35 36 30 24 17 15 16 16 16 1 5 1 8 9 4 6 10 6 4 5 4 4 3 7 8 2 7 4 2 4 4 3 8 27 24 13 15 14 21 19 19 34 43 49 39 33 31 30 30 30
26 31 34 27 37 33 28 23 19 18 18 8 5 5 3 10 5 4 7 9 7 7 9 2 14 3 5 3 6 7 4 4 3 3 6 6 7 10 3 9 9 5 19 24 28 27 22 25 31 31 33 32 38 38
28 21 16 31 31 29 24 20 18 15 7 9 5 8 7 4 8 8 8 7 9 7 11 1 6 7 7 3 5 2 1 5 7 8 6 7 4 5 4 11 10 9 10 12 18 20 21 27 30 35 34 38 32 42
19 22 27 31 25 20 17 15 11 11 17 7 4 5 5 10 3 10 8 7 6 8 11 13 8 3 6 5 5 3 5 5 8 3 3 13 15 1 8 14 14 11 11 16 19 22 26 31 30 35 29 31 33 26
29 24 19 14 12 10 9 8 11 21 7 8 8 4 9 10 11 5 4 6 15 3 9 11 16 9 15 8 8 8 5 7 7 8 16 8 14 2 11 14 14 14 17 15 18 20 26 29 26 33 36 40 35 33
15 8 3 9 9 7 9 12 22 27 4 8 7 8 11 15 5 5 5 7 7 3 7 10 3 7 10 8 7 2 9 10 8 11 10 23 8 7 11 14 13 12 17 18 21 25 29 31 34 40 41 40 34 26
11 11 13 6 7 9 13 21 23 7 6 7 10 11 15 8 17 14 10 8 8 9 7 7 12 5 7 5 5 11 6 6 8 15 16 7 7 7 11 12 12 12 17 22 27 31 33 33 33 35 36 35 35 36
5 1 5 4 5 10 11 10 5 8 9 8 12 19 14 16 9 9 10 7 10 16 11 1 8 9 4 6 6 5 8 11 21 18 13 9 5 6 9 9 10 13 19 26 30 33 32 33 35 35 34 34 32 31
5 9 8 4 1 9 10 9 7 9 12 17 19 10 9 15 11 10 12 10 13 14 9 6 12 11 10 7 9 10 19 16 8 9 12 9 4 4 6 7 7 13 21 24 27 27 26 24 24 24 22 17 17 23
9 8 5 2 3 4 5 8 9 10 19 14 16 11 10 11 13 10 12 16 19 16 12 11 9 10 13 16 11 5 13 13 15 7 8 8 4 5 4 4 9 8 15 15 20 23 19 14 18 15 3 7 14 20
11 6 3 4 3 2 7 9 10 11 9 11 14 15 16 17 15 20 20 21 20 23 20 12 21 34 23 29 5 5 4 5 10 15 5 6 12 8 8 9 8 12 8 5 14 19 19 10 13 14 17 20 26 26
9 4 9 10 6 11 9 7 9 11 10 10 16 16 15 18 21 23 26 23 32 37 35 39 48 49 22 25 11 15 12 7 10 12 6 8 18 6 9 6 5 5 10 7 7 7 15 11 6 12 13 14 20 19
10 9 6 10 5 7 12 14 12 9 10 15 11 17 19 21 26 29 27 34 44 40 47 46 44 15 4 11 21 15 12 10 12 8 8 9 13 11 10 9 6 6 5 9 11 8 7 9 9 8 11 14 12 11
14 10 5 9 8 8 13 10 9 10 8 6 12 11 15 15 10 2 13 24 31 33 15 11 8 7 7 22 26 16 7 8 11 14 10 14 6 6 8 4 5 6 4 3 1 1 7 6 3 3 7 4 7 7
11 5 7 9 14 9 7 9 15 10 12 16 14 10 10 3 9 9 15 12 7 5 3 6 5 15 22 34 24 13 3 6 9 12 10 11 8 9 7 5 3 1 2 1 5 2 3 6 8 8 7 4 1 3
9 9 9 12 10 6 8 9 13 12 12 14 11 7 1 3 8 16 10 12 24 21 12 1 6 10 18 23 19 8 7 6 11 8 8 9 8 9 10 8 4 1 5 6 6 5 3 5 6 6 5 4 3 7
7 12 12 9 11 11 7 7 3 9 13 4 5 3 4 5 5 12 5 13 19 13 15 9 19 25 30 28 13 12 6 6 7 9 7 8 10 12 12 10 11 7 7 8 10 6 4 3 3 5 5 4 5 8
8 12 17 15 12 10 11 17 17 12 9 5 4 5 7 7 3 5 5 13 16 15 6 4 18 31 31 26 6 8 7 7 3 4 9 11 10 7 8 9 6 9 11 10 7 7 8 7 4 5 4 3 3 7
18 10 18 18 18 17 17 15 15 10 2 3 5 6 7 3 2 14 15 17 7 5 17 25 27 24 7 17 12 13 12 12 13 13 12 10 9 8 9 9 9 21 14 11 8 6 7 7 5 5 5 7 6 5
17 18 17 18 18 14 11 12 15 10 3 11 2 6 10 12 11 13 13 3 9 18 20 18 9 16 10 12 16 15 15 16 14 12 9 10 9 9 10 9 8 16 10 9 19 8 11 6 4 3 3 3 4 4
25 24 22 22 21 13 20 17 18 8 8 13 16 21 4 4 6 6 1 9 15 17 12 6 10 8 12 16 15 13 12 11 9 5 5 4 6 9 11 13 13 14 13 10 10 9 7 7 2 6 2 4 3 4
20 18 21 29 29 29 27 24 21 20 20 18 11 10 4 12 12 10 7 9 12 14 7 5 10 9 14 15 15 13 13 9 7 4 4 4 6 8 11 14 15 15 14 13 12 9 8 5 6 5 4 5 3 7
20 21 19 12 16 12 11 16 18 20 11 4 4 6 7 8 6 4 2 5 2 6 10 22 15 11 11 4 7 13 11 3 10 12 11 5 8 10 11 14 16 17 16 14 12 8 5 5 4 3 3 3 4 5
18 17 18 16 14 11 15 15 11 5 7 5 3 8 9 11 8 10 6 7 9 8 15 23 17 13 7 10 7 8 8 15 17 18 19 19 22 21 16 17 18 18 18 16 12 10 6 3 5 4 4 4 4 7
Wind_Direction_500mb
318 317 313 311 311 302 301 295 311 319 342 351 356 358 11 37 42 93 286 348 19 301 97 299 334 270 223 261 284 104 190 213 218 253 254 169 199 172 170 272 301 215 208 219 242 249 236 136 145 213 48 115 137 146
316 311 308 302 299 298 287 286 293 308 331 325 336 352 8 31 48 87 329 349 40 251 31 101 288 237 273 311 301 177 300 329 312 256 203 282 159 223 227 243 201 267 249 267 271 45 86 149 56 113 135 129 137 139
314 306 299 290 283 280 267 273 268 281 300 304 284 307 320 5 28 84 13 343 323 274 203 179 95 1 253 257 271 299 293 356 288 305 318 220 176 212 247 234 251 196 257 246 277 230 189 193 155 178 181 168 167 169
323 311 299 291 260 253 241 239 242 248 264 282 285 263 283 351 16 57 25 311 320 295 279 102 92 0 311 276 247 252 272 238 247 291 274 295 274 228 230 232 217 260 183 228 253 262 229 243 200 199 191 187 187 185
309 310 304 296 226 226 216 222 214 225 243 267 285 266 258 302 14 61 47 67 59 313 31 119 86 10 10 295 187 219 219 242 254 225 275 301 3 279 258 279 278 222 236 256 260 346 233 247 202 201 199 203 203 206
300 306 301 266 200 204 191 202 200 207 222 259 277 237 232 320 31 99 167 36 14 356 312 128 111 56 60 82 98 116 151 179 193 135 143 316 346 351 319 288 267 234 243 252 264 309 261 267 199 208 210 219 218 218
301 293 286 231 193 185 176 186 193 192 198 253 187 186 206 84 81 264 39 235 283 169 275 65 130 132 100 94 91 89 101 107 107 99 91 60 38 80 296 257 282 262 275 253 234 252 229 224 206 205 209 213 213 214
306 278 262 228 183 172 167 180 178 170 158 153 150 130 109 96 61 51 37 118 121 247 285 5 153 110 171 214 144 111 166 143 121 149 162 170 146 202 241 249 266 248 255 245 247 237 236 260 217 208 206 201 205 211
309 277 268 180 168 165 160 166 165 151 143 141 131 119 79 71 73 18 167 137 225 275 330 255 145 194 95 33 51 351 132 98 141 197 171 150 154 231 235 263 282 249 227 233 232 237 231 230 233 215 215 215 217 220
307 272 153 158 161 155 154 155 149 140 140 134 129 297 113 118 145 109 335 199 202 180 193 272 98 182 173 127 28 29 137 140 231 272 172 268 244 243 244 309 307 244 235 220 233 242 240 240 232 226 224 226 230 230
102 123 140 155 159 151 151 150 141 138 142 124 200 80 202 141 105 206 261 223 147 216 179 314 15 78 51 129 239 129 216 249 252 162 199 252 268 126 4 304 328 258 234 246 260 252 235 226 226 233 242 246 239 236
107 122 139 147 146 146 151 147 147 138 194 200 139 131 133 182 225 213 223 142 226 181 158 181 87 18 120 61 50 186 193 211 250 176 228 301 183 97 317 312 286 284 286 280 255 247 242 254 251 257 255 251 255 249
111 130 142 139 140 146 150 159 173 168 145 145 183 148 167 174 243 228 188 184 171 187 154 183 182 127 154 165 222 166 213 246 273 219 237 238 154 257 306 300 293 271 274 274 275 268 264 268 264 256 255 259 261 261
98 109 127 146 153 168 182 209 194 167 143 226 180 195 222 190 242 193 262 36 80 241 176 194 160 203 200 170 195 217 206 239 267 188 263 114 135 352 321 296 279 291 288 289 293 295 290 286 287 266 257 249 242 237
75 77 196 214 208 230 248 218 176 168 213 245 209 237 211 232 232 82 65 160 143 184 180 196 154 250 241 197 226 273 203 220 224 225 265 83 76 349 309 290 293 296 291 296 298 296 296 289 282 279 273 279 278 242
65 55 55 65 183 178 148 145 159 199 250 243 233 251 193 225 205 174 173 155 146 151 194 239 201 238 230 228 195 236 275 298 296 359 349 103 88 317 291 291 277 304 305 307 309 305 298 289 285 284 279 274 261 249
18 17 7 18 160 161 163 177 221 238 248 238 235 240 249 226 317 115 159 164 164 223 258 269 208 205 357 251 304 304 278 301 324 320 4 67 26 306 280 261 271 301 309 310 310 307 304 295 287 284 275 264 246 233
352 294 288 326 169 202 220 217 245 250 242 239 255 179 226 239 257 193 188 186 197 226 249 297 346 229 229 233 267 10 332 321 286 302 308 110 114 239 266 266 285 310 318 320 323 321 317 313 305 298 278 233 212 191
322 313 321 305 238 199 231 231 225 256 225 239 237 246 228 229 229 243 217 201 217 255 287 269 241 256 259 313 240 231 293 303 296 214 147 129 170 215 247 281 289 306 329 342 347 348 331 328 329 305 281 167 163 166
327 303 303 309 281 210 251 224 219 260 272 241 245 237 218 233 223 222 227 227 222 236 239 232 259 270 248 238 192 204 248 264 251 239 220 208 189 172 198 296 327 322 301 33 347 359 3 4 52 85 99 110 136 149
329 333 316 300 288 230 261 247 234 241 271 244 237 225 238 230 234 241 241 234 225 238 252 259 264 277 260 271 166 160 162 205 258 287 328 194 205 169 189 236 266 319 307 330 31 13 27 38 50 97 129 130 127 120
262 295 313 308 246 242 259 237 260 287 255 242 243 229 256 252 234 239 247 221 238 256 266 251 268 298 158 147 157 137 158 214 240 246 235 249 245 204 223 249 273 303 327 338 40 62 62 89 125 115 96 116 108 91
275 292 261 228 252 245 264 240 250 228 238 236 227 239 243 231 245 235 260 258 258 255 277 313 302 324 156 156 144 143 166 231 233 239 228 261 228 219 219 223 269 290 247 151 33 128 124 155 161 86 132 113 100 101
248 239 243 224 209 259 246 234 226 242 247 233 248 255 267 323 119 249 258 291 84 344 327 344 159 153 140 134 116 116 129 227 237 241 245 248 211 197 214 203 225 262 287 150 158 175 180 168 174 186 183 178 94 286
241 237 212 239 244 222 240 237 221 245 228 229 226 261 222 137 263 286 297 84 37 10 4 356 190 166 164 151 115 32 314 218 245 239 226 226 207 182 183 193 187 119 192 173 156 163 167 168 200 214 214 223 233 274
225 212 201 231 200 216 231 292 305 275 284 265 232 280 263 274 119 243 124 28 28 43 345 303 202 154 133 136 135 276 262 206 231 224 201 216 197 192 184 193 204 173 200 190 178 168 179 211 168 178 209 240 309 262
244 233 212 231 269 287 281 255 245 242 263 264 219 238 219 232 1 16 72 32 357 346 8 160 159 147 133 147 272 244 188 169 186 157 162 155 161 173 187 195 216 148 166 169 181 193 201 189 198 226 230 180 270 291
238 257 241 229 214 237 247 275 277 251 319 334 302 307 337 301 1 14 2 347 355 108 125 131 133 124 291 293 178 167 152 145 132 130 135 139 143 147 148 152 172 159 160 170 157 175 188 192 201 204 214 269 280 312
232 228 237 252 252 247 239 240 250 268 11 311 208 299 326 17 12 338 333 340 139 146 139 129 93 2 111 134 149 152 157 157 150 147 166 153 163 171 168 177 164 160 171 187 187 150 174 148 133 165 277 291 310 302
233 234 232 239 235 234 238 245 276 343 292 284 289 288 284 45 339 22 87 162 166 171 169 158 15 157 152 150 151 155 168 173 175 175 183 181 156 173 173 176 175 176 182 187 187 223 241 206 252 199 243 245 221 181
237 224 228 238 250 250 251 260 263 264 272 276 287 308 19 122 112 61 84 150 175 193 224 182 147 167 156 170 167 170 176 187 194 185 158 150 168 171 180 185 186 187 187 189 193 205 211 229 240 246 231 236 257 204
214 221 226 228 231 202 236 239 238 247 232 248 32 45 65 89 94 91 31 144 240 256 215 166 175 172 180 149 146 196 231 209 216 227 219 211 211 209 194 185 187 187 187 191 194 206 219 232 230 217 191 224 248 264
209 205 220 253 260 239 228 235 243 199 106 104 83 61 45 65 81 55 25 340 301 251 203 196 204 221 187 180 193 237 252 232 243 240 238 239 211 212 204 199 197 195 193 194 204 208 213 213 221 223 236 238 260 303
Wind_Speed_850mb
48 44 43 38 36 24 18 18 14 12 11 9 8 8 6 4 4 6 5 6 5 10 11 2 3 5 5 12 14 25 13 15 14 12 9 7 7 5 3 14 11 11 11 12 17 25 24 24 16 10 14 12 19 19
51 47 43 40 33 28 19 17 12 10 9 6 4 5 5 6 6 9 3 10 2 7 12 1 1 3 4 7 20 9 15 8 6 9 3 4 3 8 13 6 14 9 10 8 7 8 11 12 9 15 10 19 16 20
59 50 42 38 34 25 16 16 12 8 7 6 3 3 4 5 6 4 1 7 5 9 15 10 8 3 8 11 11 24 1 10 3 16 22 3 7 9 10 10 13 14 13 9 12 16 11 8 6 15 16 18 15 14
54 47 44 38 33 26 19 15 12 10 7 6 3 5 4 4 5 7 3 7 3 7 11 14 7 8 13 11 15 14 5 5 4 7 21 11 10 5 14 13 8 12 10 13 22 16 5 15 20 22 22 16 16 15
52 49 45 44 35 29 21 16 14 12 8 5 5 6 5 3 4 11 4 7 5 5 12 17 13 15 10 1 5 8 12 13 17 9 9 10 12 8 20 11 12 15 14 13 14 17 16 20 31 31 27 23 20 20
43 44 39 25 36 31 24 20 15 13 7 5 6 6 4 2 5 6 6 3 4 4 10 4 10 11 15 14 12 8 7 4 3 1 1 7 11 17 6 7 11 13 22 25 24 15 16 13 12 32 31 27 23 22
45 37 24 21 36 33 28 20 17 12 6 3 5 5 1 5 10 5 2 6 13 5 9 8 9 4 2 11 8 8 8 6 5 7 5 3 6 4 4 9 16 15 16 13 11 12 12 15 17 20 22 24 20 21
35 22 16 21 36 34 30 22 19 12 6 8 7 4 14 18 16 13 7 10 17 2 8 3 7 10 2 12 4 4 8 9 7 9 11 8 9 7 8 25 25 15 19 22 28 29 29 10 26 18 21 22 24 25
21 14 15 29 38 35 29 24 17 12 13 12 11 17 15 9 4 1 4 6 4 5 6 6 9 6 8 5 3 2 2 4 8 8 9 13 6 9 16 21 15 18 21 26 27 30 30 30 24 27 25 25 26 26
12 9 30 41 35 36 30 24 17 15 16 16 16 1 5 1 8 9 4 6 10 6 4 5 4 4 3 7 8 2 7 4 2 4 4 3 8 27 24 13 15 14 21 19 19 34 43 49 39 33 31 30 30 30
26 31 34 27 37 33 28 23 19 18 18 8 5 5 3 10 5 4 7 9 7 7 9 2 14 3 5 3 6 7 4 4 3 3 6 6 7 10 3 9 9 5 19 24 28 27 22 25 31 31 33 32 38 38
28 21 16 31 31 29 24 20 18 15 7 9 5 8 7 4 8 8 8 7 9 7 11 1 6 7 7 3 5 2 1 5 7 8 6 7 4 5 4 11 10 9 10 12 18 20 21 27 30 35 34 38 32 42
19 22 27 31 25 20 17 15 11 11 17 7 4 5 5 10 3 10 8 7 6 8 11 13 8 3 6 5 5 3 5 5 8 3 3 13 15 1 8 14 14 11 11 16 19 22 26 31 30 35 29 31 33 26
29 24 19 14 12 10 9 8 11 21 7 8 8 4 9 10 11 5 4 6 15 3 9 11 16 9 15 8 8 8 5 7 7 8 16 8 14 2 11 14 14 14 17 15 18 20 26 29 26 33 36 40 35 33
15 8 3 9 9 7 9 12 22 27 4 8 7 8 11 15 5 5 5 7 7 3 7 10 3 7 10 8 7 2 9 10 8 11 10 23 8 7 11 14 13 12 17 18 21 25 29 31 34 40 41 40 34 26
11 11 13 6 7 9 13 21 23 7 6 7 10 11 15 8 17 14 10 8 8 9 7 7 12 5 7 5 5 11 6 6 8 15 16 7 7 7 11 12 12 12 17 22 27 31 33 33 33 35 36 35 35 36
5 1 5 4 5 10 11 10 5 8 9 8 12 19 14 16 9 9 10 7 10 16 11 1 8 9 4 6 6 5 8 11 21 18 13 9 5 6 9 9 10 13 19 26 30 33 32 33 35 35 34 34 32 31
5 9 8 4 1 9 10 9 7 9 12 17 19 10 9 15 11 10 12 10 13 14 9 6 12 11 10 7 9 10 19 16 8 9 12 9 4 4 6 7 7 13 21 24 27 27 26 24 24 24 22 17 17 23
9 8 5 2 3 4 5 8 9 10 19 14 16 11 10 11 13 10 12 16 19 16 12 11 9 10 13 16 11 5 13 13 15 7 8 8 4 5 4 4 9 8 15 15 20 23 19 14 18 15 3 7 14 20
11 6 3 4 3 2 7 9 10 11 9 11 14 15 16 17 15 20 20 21 20 23 20 12 21 34 23 29 5 5 4 5 10 15 5 6 12 8 8 9 8 12 8 5 14 19 19 10 13 14 17 20 26 26
9 4 9 10 6 11 9 7 9 11 10 10 16 16 15 18 21 23 26 23 32 37 35 39 48 49 22 25 11 15 12 7 10 12 6 8 18 6 9 6 5 5 10 7 7 7 15 11 6 12 13 14 20 19
10 9 6 10 5 7 12 14 12 9 10 15 11 17 19 21 26 29 27 34 44 40 47 46 44 15 4 11 21 15 12 10 12 8 8 9 13 11 10 9 6 6 5 9 11 8 7 9 9 8 11 14 12 11
14 10 5 9 8 8 13 10 9 10 8 6 12 11 15 15 10 2 13 24 31 33 15 11 8 7 7 22 26 16 7 8 11 14 10 14 6 6 8 4 5 6 4 3 1 1 7 6 3 3 7 4 7 7
11 5 7 9 14 9 7 9 15 10 12 16 14 10 10 3 9 9 15 12 7 5 3 6 5 15 22 34 24 13 3 6 9 12 10 11 8 9 7 5 3 1 2 1 5 2 3 6 8 8 7 4 1 3
9 9 9 12 10 6 8 9 13 12 12 14 11 7 1 3 8 16 10 12 24 21 12 1 6 10 18 23 19 8 7 6 11 8 8 9 8 9 10 8 4 1 5 6 6 5 3 5 6 6 5 4 3 7
7 12 12 9 11 11 7 7 3 9 13 4 5 3 4 5 5 12 5 13 19 13 15 9 19 25 30 28 13 12 6 6 7 9 7 8 10 12 12 10 11 7 7 8 10 6 4 3 3 5 5 4 5 8
8 12 17 15 12 10 11 17 17 12 9 5 4 5 7 7 3 5 5 13 16 15 6 4 18 31 31 26 6 8 7 7 3 4 9 11 10 7 8 9 6 9 11 10 7 7 8 7 4 5 4 3 3 7
18 10 18 18 18 17 17 15 15 10 2 3 5 6 7 3 2 14 15 17 7 5 17 25 27 24 7 17 12 13 12 12 13 13 12 10 9 8 9 9 9 21 14 11 8 6 7 7 5 5 5 7 6 5
17 18 17 18 18 14 11 12 15 10 3 11 2 6 10 12 11 13 13 3 9 18 20 18 9 16 10 12 16 15 15 16 14 12 9 10 9 9 10 9 8 16 10 9 19 8 11 6 4 3 3 3 4 4
25 24 22 22 21 13 20 17 18 8 8 13 16 21 4 4 6 6 1 9 15 17 12 6 10 8 12 16 15 13 12 11 9 5 5 4 6 9 11 13 13 14 13 10 10 9 7 7 2 6 2 4 3 4
20 18 21 29 29 29 27 24 21 20 20 18 11 10 4 12 12 10 7 9 12 14 7 5 10 9 14 15 15 13 13 9 7 4 4 4 6 8 11 14 15 15 14 13 12 9 8 5 6 5 4 5 3 7
20 21 19 12 16 12 11 16 18 20 11 4 4 6 7 8 6 4 2 5 2 6 10 22 15 11 11 4 7 13 11 3 10 12 11 5 8 10 11 14 16 17 16 14 12 8 5 5 4 3 3 3 4 5
18 17 18 16 14 11 15 15 11 5 7 5 3 8 9 11 8 10 6 7 9 8 15 23 17 13 7 10 7 8 8 15 17 18 19 19 22 21 16 17 18 18 18 16 12 10 6 3 5 4 4 4 4 7
Wind_Direction_850mb
318 317 313 311 311 302 301 295 311 319 342 351 356 358 11 37 42 93 286 348 19 301 97 299 334 270 223 261 284 104 190 213 218 253 254 169 199 172 170 272 301 215 208 219 242 249 236 136 145 213 48 115 137 146
316 311 308 302 299 298 287 286 293 308 331 325 336 352 8 31 48 87 329 349 40 251 31 101 288 237 273 311 301 177 300 329 312 256 203 282 159 223 227 243 201 267 249 267 271 45 86 149 56 113 135 129 137 139
314 306 299 290 283 280 267 273 268 281 300 304 284 307 320 5 28 84 13 343 323 274 203 179 95 1 253 257 271 299 293 356 288 305 318 220 176 212 247 234 251 196 257 246 277 230 189 193 155 178 181 168 167 169
323 311 299 291 260 253 241 239 242 248 264 282 285 263 283 351 16 57 25 311 320 295 279 102 92 0 311 276 247 252 272 238 247 291 274 295 274 228 230 232 217 260 183 228 253 262 229 243 200 199 191 187 187 185
309 310 304 296 226 226 216 222 214 225 243 267 285 266 258 302 14 61 47 67 59 313 31 119 86 10 10 295 187 219 219 242 254 225 275 301 3 279 258 279 278 222 236 256 260 346 233 247 202 201 199 203 203 206
300 306 301 266 200 204 191 202 200 207 222 259 277 237 232 320 31 99 167 36 14 356 312 128 111 56 60 82 98 116 151 179 193 135 143 316 346 351 319 288 267 234 243 252 264 309 261 267 199 208 210 219 218 218
301 293 286 231 193 185 176 186 193 192 198 253 187 186 206 84 81 264 39 235 283 169 275 65 130 132 100 94 91 89 101 107 107 99 91 60 38 80 296 257 282 262 275 253 234 252 229 224 206 205 209 213 213 214
306 278 262 228 183 172 167 180 178 170 158 153 150 130 109 96 61 51 37 118 121 247 285 5 153 110 171 214 144 111 166 143 121 149 162 170 146 202 241 249 266 248 255 245 247 237 236 260 217 208 206 201 205 211
309 277 268 180 168 165 160 166 165 151 143 141 131 119 79 71 73 18 167 137 225 275 330 255 145 194 95 33 51 351 132 98 141 197 171 150 154 231 235 263 282 249 227 233 232 237 231 230 233 215 215 215 217 220
307 272 153 158 161 155 154 155 149 140 140 134 129 297 113 118 145 109 335 199 202 180 193 272 98 182 173 127 28 29 137 140 231 272 172 268 244 243 244 309 307 244 235 220 233 242 240 240 232 226 224 226 230 230
102 123 140 155 159 151 151 150 141 138 142 124 200 80 202 141 105 206 261 223 147 216 179 314 15 78 51 129 239 129 216 249 252 162 199 252 268 126 4 304 328 258 234 246 260 252 235 226 226 233 242 246 239 236
107 122 139 147 146 146 151 147 147 138 194 200 139 131 133 182 225 213 223 142 226 181 158 181 87 18 120 61 50 186 193 211 250 176 228 301 183 97 317 312 286 284 286 280 255 247 242 254 251 257 255 251 255 249
111 130 142 139 140 146 150 159 173 168 145 145 183 148 167 174 243 228 188 184 171 187 154 183 182 127 154 165 222 166 213 246 273 219 237 238 154 257 306 300 293 271 274 274 275 268 264 268 264 256 255 259 261 261
98 109 127 146 153 168 182 209 194 167 143 226 180 195 222 190 242 193 262 36 80 241 176 194 160 203 200 170 195 217 206 239 267 188 263 114 135 352 321 296 279 291 288 289 293 295 290 286 287 266 257 249 242 237
75 77 196 214 208 230 248 218 176 168 213 245 209 237 211 232 232 82 65 160 143 184 180 196 154 250 241 197 226 273 203 220 224 225 265 83 76 349 309 290 293 296 291 296 298 296 296 289 282 279 273 279 278 242
65 55 55 65 183 178 148 145 159 199 250 243 233 251 193 225 205 174 173 155 146 151 194 239 201 238 230 228 195 236 275 298 296 359 349 103 88 317 291 291 277 304 305 307 309 305 298 289 285 284 279 274 261 249
18 17 7 18 160 161 163 177 221 238 248 238 235 240 249 226 317 115 159 164 164 223 258 269 208 205 357 251 304 304 278 301 324 320 4 67 26 306 280 261 271 301 309 310 310 307 304 295 287 284 275 264 246 233
352 294 288 326 169 202 220 217 245 250 242 239 255 179 226 239 257 193 188 186 197 226 249 297 346 229 229 233 267 10 332 321 286 302 308 110 114 239 266 266 285 310 318 320 323 321 317 313 305 298 278 233 212 191
322 313 321 305 238 199 231 231 225 256 225 239 237 246 228 229 229 243 217 201 217 255 287 269 241 256 259 313 240 231 293 303 296 214 147 129 170 215 247 281 289 306 329 342 347 348 331 328 329 305 281 167 163 166
327 303 303 309 281 210 251 224 219 260 272 241 245 237 218 233 223 222 227 227 222 236 239 232 259 270 248 238 192 204 248 264 251 239 220 208 189 172 198 296 327 322 301 33 347 359 3 4 52 85 99 110 136 149
329 333 316 300 288 230 261 247 234 241 271 244 237 225 238 230 234 241 241 234 225 238 252 259 264 277 260 271 166 160 162 205 258 287 328 194 205 169 189 236 266 319 307 330 31 13 27 38 50 97 129 130 127 120
262 295 313 308 246 242 259 237 260 287 255 242 243 229 256 252 234 239 247 221 238 256 266 251 268 298 158 147 157 137 158 214 240 246 235 249 245 204 223 249 273 303 327 338 40 62 62 89 125 115 96 116 108 91
275 292 261 228 252 245 264 240 250 228 238 236 227 239 243 231 245 235 260 258 258 255 277 313 302 324 156 156 144 143 166 231 233 239 228 261 228 219 219 223 269 290 247 151 33 128 124 155 161 86 132 113 100 101
248 239 243 224 209 259 246 234 226 242 247 233 248 255 267 323 119 249 258 291 84 344 327 344 159 153 140 134 116 116 129 227 237 241 245 248 211 197 214 203 225 262 287 150 158 175 180 168 174 186 183 178 94 286
241 237 212 239 244 222 240 237 221 245 228 229 226 261 222 137 263 286 297 84 37 10 4 356 190 166 164 151 115 32 314 218 245 239 226 226 207 182 183 193 187 119 192 173 156 163 167 168 200 214 214 223 233 274
225 212 201 231 200 216 231 292 305 275 284 265 232 280 263 274 119 243 124 28 28 43 345 303 202 154 133 136 135 276 262 206 231 224 201 216 197 192 184 193 204 173 200 190 178 168 179 211 168 178 209 240 309 262
244 233 212 231 269 287 281 255 245 242 263 264 219 238 219 232 1 16 72 32 357 346 8 160 159 147 133 147 272 244 188 169 186 157 162 155 161 173 187 195 216 148 166 169 181 193 201 189 198 226 230 180 270 291
238 257 241 229 214 237 247 275 277 251 319 334 302 307 337 301 1 14 2 347 355 108 125 131 133 124 291 293 178 167 152 145 132 130 135 139 143 147 148 152 172 159 160 170 157 175 188 192 201 204 214 269 280 312
232 228 237 252 252 247 239 240 250 268 11 311 208 299 326 17 12 338 333 340 139 146 139 129 93 2 111 134 149 152 157 157 150 147 166 153 163 171 168 177 164 160 171 187 187 150 174 148 133 165 277 291 310 302
233 234 232 239 235 234 238 245 276 343 292 284 289 288 284 45 339 22 87 162 166 171 169 158 15 157 152 150 151 155 168 173 175 175 183 181 156 173 173 176 175 176 182 187 187 223 241 206 252 199 243 245 221 181
237 224 228 238 250 250 251 260 263 264 272 276 287 308 19 122 112 61 84 150 175 193 224 182 147 167 156 170 167 170 176 187 194 185 158 150 168 171 180 185 186 187 187 189 193 205 211 229 240 246 231 236 257 204
214 221 226 228 231 202 236 239 238 247 232 248 32 45 65 89 94 91 31 144 240 256 215 166 175 172 180 149 146 196 231 209 216 227 219 211 211 209 194 185 187 187 187 191 194 206 219 232 230 217 191 224 248 264
209 205 220 253 260 239 228 235 243 199 106 104 83 61 45 65 81 55 25 340 301 251 203 196 204 221 187 180 193 237 252 232 243 240 238 239 211 212 204 199 197 195 193 194 204 208 213 213 221 223 236 238 260 303